Location: Mount Cross
(36.6390°N, 79.4878°W)
Time: 19:26:06
(UTC+00:00)

Courier 1B Rocket - Pass Details

Date: 26 March 2023
Orbit: 920 x 1202 km, 28.2° (Epoch: 08 June)

Event Time Altitude Azimuth Distance (km) Brightness Sun altitude
Rises 02:54:49 0° 254° (WSW) 3,774 8.5 -38.1°
Reaches altitude 10° 02:57:45 10° 247° (WSW) 2,778 7.6 -38.5°
Enters shadow 02:58:53 15° 243° (WSW) 2,410 7.2 -38.7°
Maximum altitude 03:03:55 40° 180° (S) 1,379 - -39.5°
Drops below altitude 10° 03:09:47 10° 112° (ESE) 2,635 - -40.3°
Sets 03:12:29 0° 105° (ESE) 3,561 - -40.7°
